FW5890 Weather Reports


Display with metric or nautical units.
time (UTC)temp
F
wind
direction
speed
MPH
gust
MPH
rain 1hr
in
rain 24hr
in
rain mn
in
humidity
%
barometer
mb
20260906193009 76 219 3.0 9.0 0.00 0.00 0.00 81 1017.1
20260906192603 76 243 1.0 5.0 0.00 0.00 0.00 82 1017.1
20260906192012 76 169 1.0 4.0 0.00 0.00 0.00 82 1017.1
20260906191553 76 221 2.0 4.0 0.00 0.00 0.00 82 1017.1
20260906191004 76 172 2.0 5.0 0.00 0.00 0.00 82 1017.1
20260906190525 76 195 2.0 6.0 0.00 0.00 0.00 82 1017.1
20260906190104 76 272 2.0 5.0 0.00 0.00 0.00 82 1017.2
20260906185537 76 304 2.0 5.0 0.00 0.00 0.00 82 1017.0
20260906185010 76 266 2.0 8.0 0.00 0.00 0.00 82 1017.1
20260906184554 76 290 2.0 8.0 0.00 0.00 0.00 82 1017.0
20260906184008 76 319 2.0 8.0 0.00 0.00 0.00 82 1016.9
20260906183532 76 172 3.0 9.0 0.00 0.00 0.00 81 1016.9
20260906183009 76 232 2.0 9.0 0.00 0.00 0.00 81 1016.9
20260906182553 76 234 1.0 7.0 0.00 0.00 0.00 82 1017.0
20260906182009 76 221 2.0 6.0 0.00 0.00 0.00 82 1016.9
20260906181540 76 227 3.0 8.0 0.00 0.00 0.00 82 1017.0
20260906181031 75 195 2.0 8.0 0.00 0.00 0.00 83 1017.2
20260906180549 75 180 1.0 7.0 0.00 0.00 0.00 84 1017.2
20260906180006 75 185 2.0 7.0 0.00 0.00 0.00 83 1017.1
20260906175526 75 218 2.0 8.0 0.00 0.00 0.00 84 1017.0
20260906175103 74 209 3.0 11.0 0.00 0.00 0.00 84 1016.9
20260906174550 74 166 4.0 11.0 0.00 0.00 0.00 84 1017.0
20260906174031 74 211 1.0 10.0 0.00 0.00 0.00 86 1017.1
20260906173517 74 159 3.0 10.0 0.00 0.00 0.00 85 1017.2
20260906173012 74 178 4.0 10.0 0.00 0.00 0.00 84 1017.3
20260906172554 74 211 2.0 9.0 0.00 0.00 0.00 84 1017.3
20260906172021 74 144 3.0 8.0 0.00 0.00 0.00 84 1017.4
20260906171604 74 190 2.0 5.0 0.00 0.00 0.00 86 1017.5
20260906171026 74 200 2.0 7.0 0.00 0.00 0.00 85 1017.5
20260906170554 74 202 3.0 8.0 0.00 0.00 0.00 85 1017.5
20260906170010 73 130 2.0 7.0 0.00 0.00 0.00 87 1017.7
20260906165536 73 196 3.0 8.0 0.00 0.00 0.00 87 1017.7
20260906165001 73 208 3.0 8.0 0.00 0.00 0.00 87 1017.8
20260906164534 72 257 3.0 6.0 0.00 0.00 0.00 87 1017.9
20260906164007 72 186 2.0 6.0 0.00 0.00 0.00 88 1017.8
20260906163554 72 161 2.0 6.0 0.00 0.00 0.00 88 1017.9
20260906163011 72 189 3.0 7.0 0.00 0.00 0.00 88 1017.9
20260906162539 72 190 2.0 10.0 0.00 0.00 0.00 88 1017.8
20260906162004 72 172 3.0 10.0 0.00 0.00 0.00 88 1017.7
20260906161528 72 166 2.0 7.0 0.00 0.00 0.00 88 1017.8
20260906161006 72 156 0.0 7.0 0.00 0.00 0.00 89 1017.9
20260906160550 72 161 2.0 7.0 0.00 0.00 0.00 89 1017.9
20260906160052 72 162 2.0 5.0 0.00 0.00 0.00 90 1017.8
20260906155517 71 147 3.0 7.0 0.00 0.00 0.00 90 1017.8
20260906155059 71 130 3.0 7.0 0.00 0.00 0.00 90 1017.8
20260906154509 71 170 3.0 7.0 0.00 0.00 0.00 90 1017.8
20260906154044 71 172 1.0 7.0 0.00 0.00 0.00 90 1017.8
20260906153530 71 189 2.0 9.0 0.00 0.00 0.00 90 1017.7
20260906153057 71 179 3.0 9.0 0.00 0.00 0.00 90 1017.8
20260906152507 71 173 3.0 7.0 0.00 0.00 0.00 90 1017.9
20260906152027 71 240 2.0 6.0 0.00 0.00 0.00 91 1018.1
20260906151507 70 173 3.0 8.0 0.00 0.00 0.00 91 1018.1
20260906151051 70 176 3.0 9.0 0.00 0.00 0.00 91 1018.2
20260906150536 70 262 3.0 9.0 0.00 0.00 0.00 91 1018.1
20260906150019 70 153 1.0 7.0 0.00 0.00 0.00 92 1018.0
20260906145536 70 242 2.0 7.0 0.00 0.00 0.00 92 1018.1
20260906145011 70 252 1.0 9.0 0.00 0.00 0.00 92 1018.0
20260906144543 70 157 4.0 9.0 0.00 0.00 0.00 92 1017.9
20260906144010 70 223 2.0 7.0 0.00 0.00 0.00 92 1017.9
20260906143550 70 169 3.0 8.0 0.00 0.00 0.00 92 1017.9
20260906143021 70 196 3.0 8.0 0.00 0.00 0.00 92 1017.9
20260906142552 70 186 3.0 7.0 0.00 0.00 0.00 92 1017.8
20260906142011 70 296 2.0 9.0 0.00 0.00 0.00 92 1017.9
20260906141558 70 148 4.0 9.0 0.00 0.00 0.00 92 1017.9
20260906141031 70 150 2.0 9.0 0.00 0.00 0.00 92 1017.9
20260906140612 70 160 2.0 8.0 0.00 0.00 0.00 92 1017.8
20260906140037 70 187 2.0 7.0 0.00 0.00 0.00 92 1017.8
20260906135603 70 229 3.0 7.0 0.00 0.00 0.00 91 1017.8
20260906135012 71 188 1.0 5.0 0.00 0.00 0.00 92 1017.7
20260906134556 71 220 1.0 5.0 0.00 0.00 0.00 92 1017.7
20260906134018 71 257 2.0 8.0 0.00 0.00 0.00 92 1017.6
20260906133504 71 144 2.0 8.0 0.00 0.00 0.00 93 1017.6
20260906133110 71 149 2.0 7.0 0.00 0.00 0.00 94 1017.5
20260906132610 70 154 2.0 7.0 0.00 0.00 0.00 93 1017.4
20260906132020 70 146 2.0 8.0 0.00 0.00 0.00 94 1017.4
20260906131539 70 159 2.0 8.0 0.00 0.00 0.00 95 1017.3
20260906131058 70 179 3.0 8.0 0.00 0.00 0.00 95 1017.3
20260906130529 69 151 2.0 8.0 0.00 0.00 0.00 95 1017.2
20260906130105 69 153 1.0 5.0 0.00 0.00 0.00 96 1017.2
20260906125523 68 219 1.0 4.0 0.00 0.00 0.00 96 1017.1
20260906125043 68 190 0.0 5.0 0.00 0.00 0.00 96 1017.1
20260906124602 68 179 0.0 5.0 0.00 0.00 0.00 96 1017.0
20260906124016 68 161 0.0 4.0 0.00 0.00 0.00 96 1017.0
20260906123553 68 177 0.0 4.0 0.00 0.00 0.00 97 1017.1
20260906123026 68 172 0.0 3.0 0.00 0.00 0.00 97 1017.1
20260906122547 67 173 0.0 3.0 0.00 0.00 0.00 97 1017.1
20260906122109 67 181 0.0 0.0 0.00 0.00 0.00 96 1017.1
20260906121517 67 181 0.0 1.0 0.00 0.00 0.00 96 1017.0
20260906121103 67 182 0.0 0.0 0.00 0.00 0.00 96 1017.0
20260906120521 67 182 0.0 0.0 0.00 0.00 0.00 96 1017.1
20260906120058 67 181 0.0 0.0 0.00 0.00 0.00 96 1017.0
20260906115505 67 182 0.0 0.0 0.00 0.00 0.00 96 1016.9
20260906115026 67 182 0.0 0.0 0.00 0.00 0.00 96 1016.9
20260906114606 67 182 0.0 0.0 0.00 0.00 0.00 96 1016.9
20260906114015 67 182 0.0 1.0 0.00 0.00 0.00 95 1016.8
20260906113541 67 182 0.0 1.0 0.00 0.00 0.00 96 1016.8
20260906113029 67 181 0.0 0.0 0.00 0.00 0.00 95 1016.7
20260906112548 67 181 0.0 0.0 0.00 0.00 0.00 95 1016.7
20260906112111 67 181 0.0 0.0 0.00 0.00 0.00 95 1016.7
20260906111521 67 181 0.0 0.0 0.00 0.00 0.00 95 1016.7
20260906111041 67 181 0.0 0.0 0.00 0.00 0.00 95 1016.7
20260906110559 67 181 0.0 0.0 0.00 0.00 0.00 95 1016.7
20260906110008 67 181 0.0 0.0 0.00 0.00 0.00 95 1016.6
20260906105528 67 181 0.0 0.0 0.00 0.00 0.00 95 1016.5
20260906105049 67 181 0.0 0.0 0.00 0.00 0.00 95 1016.5
20260906104608 67 181 0.0 0.0 0.00 0.00 0.00 94 1016.5
20260906104043 67 181 0.0 0.0 0.00 0.00 0.00 94 1016.5
20260906103602 68 181 0.0 0.0 0.00 0.00 0.00 94 1016.6
20260906103018 68 181 0.0 1.0 0.00 0.00 0.00 94 1016.5
20260906102600 68 181 0.0 1.0 0.00 0.00 0.00 94 1016.5
20260906102031 68 182 0.0 2.0 0.00 0.00 0.00 94 1016.5
20260906101501 68 180 0.0 2.0 0.00 0.00 0.00 94 1016.4
20260906101024 68 161 0.0 2.0 0.00 0.00 0.00 94 1016.4
20260906100552 68 161 0.0 2.0 0.00 0.00 0.00 94 1016.4
20260906100037 68 161 0.0 2.0 0.00 0.00 0.00 94 1016.4
20260906095553 68 161 0.0 2.0 0.00 0.00 0.00 94 1016.3
20260906095025 69 157 0.0 2.0 0.00 0.00 0.00 93 1016.2
20260906094547 69 157 0.0 2.0 0.00 0.00 0.00 93 1016.1
20260906094021 69 157 0.0 1.0 0.00 0.00 0.00 93 1016.0
20260906093502 69 157 0.0 2.0 0.00 0.00 0.00 93 1016.0
20260906093032 69 157 0.0 3.0 0.00 0.00 0.00 93 1015.9
20260906092505 69 156 0.0 3.0 0.00 0.00 0.00 93 1015.8
20260906092049 69 153 0.0 3.0 0.00 0.00 0.00 93 1015.7
20260906091609 69 153 0.0 3.0 0.00 0.00 0.00 93 1015.6
20260906091020 69 131 1.0 3.0 0.00 0.00 0.00 93 1015.6
20260906090538 70 157 1.0 3.0 0.00 0.00 0.00 93 1015.6
20260906090100 70 165 0.0 5.0 0.00 0.00 0.00 92 1015.7
20260906085509 70 165 1.0 5.0 0.00 0.00 0.00 92 1015.7
20260906085031 70 167 1.0 5.0 0.00 0.00 0.00 92 1015.7
20260906084549 70 144 0.0 3.0 0.00 0.00 0.00 92 1015.7
20260906084027 70 135 1.0 4.0 0.00 0.00 0.00 92 1015.6
20260906083606 70 134 1.0 4.0 0.00 0.00 0.00 92 1015.6
20260906083050 70 159 1.0 6.0 0.00 0.00 0.00 92 1015.5
20260906082530 70 155 1.0 5.0 0.00 0.00 0.00 92 1015.3
20260906082052 70 144 1.0 6.0 0.00 0.00 0.00 91 1015.3
20260906081501 70 217 1.0 6.0 0.00 0.00 0.00 91 1015.4
20260906081045 71 146 0.0 6.0 0.00 0.00 0.00 91 1015.4
20260906080605 71 155 2.0 6.0 0.00 0.00 0.00 91 1015.4
20260906080020 71 163 1.0 5.0 0.00 0.00 0.00 91 1015.4
20260906075559 71 145 0.0 5.0 0.00 0.00 0.00 91 1015.5
20260906075033 71 132 2.0 5.0 0.00 0.00 0.00 91 1015.5
20260906074555 71 171 2.0 5.0 0.00 0.00 0.00 91 1015.5
20260906074007 71 184 1.0 5.0 0.00 0.00 0.00 91 1015.5
20260906073533 71 185 2.0 6.0 0.00 0.00 0.00 91 1015.5
20260906072557 71 174 2.0 6.0 0.00 0.00 0.00 91 1015.6
20260906072011 71 170 1.0 6.0 0.00 0.00 0.00 91 1015.7
20260906071553 71 169 0.0 3.0 0.00 0.00 0.00 91 1015.7
20260906071004 71 167 0.0 3.0 0.00 0.00 0.00 91 1015.8
20260906070523 71 168 0.0 3.0 0.00 0.00 0.00 91 1016.1
20260906065540 71 176 1.0 4.0 0.00 0.00 0.00 91 1016.1
20260906065008 71 211 0.0 3.0 0.00 0.00 0.00 91 1016.1
20260906064551 71 238 0.0 4.0 0.00 0.00 0.00 91 1016.1
20260906064001 71 295 0.0 4.0 0.00 0.00 0.00 91 1015.9
20260906063536 71 190 1.0 3.0 0.00 0.00 0.00 91 1015.9
20260906063109 71 186 0.0 3.0 0.00 0.00 0.00 91 1016.0
20260906062542 71 184 0.0 2.0 0.00 0.00 0.00 92 1016.0
20260906062034 71 184 0.0 2.0 0.00 0.00 0.00 92 1016.1
20260906061516 71 184 0.0 2.0 0.00 0.00 0.00 92 1016.0
20260906061010 71 184 0.0 3.0 0.00 0.00 0.00 92 1016.0
20260906060558 71 184 0.0 3.0 0.00 0.00 0.00 92 1016.1
20260906060034 71 218 0.0 2.0 0.00 0.00 0.00 93 1016.2
20260906055519 71 222 0.0 4.0 0.00 0.00 0.00 93 1016.1
20260906055055 71 222 0.0 4.0 0.00 0.00 0.00 94 1016.0
20260906054536 70 207 0.0 1.0 0.00 0.00 0.00 94 1015.9
20260906054002 70 207 0.0 1.0 0.00 0.00 0.00 94 1016.0
20260906053527 70 206 0.0 0.0 0.00 0.00 0.00 94 1016.0
20260906053005 70 205 0.0 0.0 0.00 0.00 0.00 94 1016.1
20260906052537 70 205 0.0 0.0 0.00 0.00 0.00 94 1016.1
20260906052017 70 205 0.0 0.0 0.00 0.00 0.00 94 1015.9
20260906051603 70 205 0.0 0.0 0.00 0.00 0.00 94 1015.9
20260906051022 70 205 0.0 0.0 0.00 0.00 0.00 94 1016.0
20260906050601 70 205 0.0 0.0 0.00 0.00 0.00 94 1016.2
20260906050037 70 205 0.0 0.0 0.00 0.00 0.00 93 1016.3
20260906045609 71 205 0.0 0.0 0.00 0.00 0.00 93 1016.3
20260906045039 71 205 0.0 0.0 0.00 0.00 0.00 93 1016.3
20260906044510 71 205 0.0 0.0 0.00 0.00 0.00 93 1016.3
20260906044004 71 205 0.0 0.0 0.00 0.00 0.00 93 1016.4
20260906043531 71 205 0.0 0.0 0.00 0.00 0.00 93 1016.4
20260906043010 71 205 0.0 0.0 0.00 0.00 0.00 93 1016.4
20260906042543 71 205 0.0 0.0 0.00 0.00 0.00 93 1016.4
20260906042108 71 205 0.0 0.0 0.00 0.00 0.00 93 1016.5
20260906041545 71 205 0.0 0.0 0.00 0.00 0.00 93 1016.5
20260906041016 71 205 0.0 0.0 0.00 0.00 0.00 93 1016.4
20260906040538 71 205 0.0 0.0 0.00 0.00 0.00 93 1016.4
20260906040003 71 205 0.0 0.0 0.00 0.00 0.00 92 1016.5
20260906035533 71 205 0.0 0.0 0.00 0.00 0.00 92 1016.4
20260906035054 71 205 0.0 0.0 0.00 0.00 0.00 92 1016.5
20260906034519 71 205 0.0 0.0 0.00 0.00 0.00 92 1016.4
20260906034047 71 205 0.0 0.0 0.00 0.00 0.00 92 1016.4
20260906033614 71 205 0.0 0.0 0.00 0.00 0.00 92 1016.4
20260906033100 71 205 0.0 0.0 0.00 0.00 0.00 92 1016.3
20260906032539 71 205 0.0 0.0 0.00 0.00 0.00 91 1016.3
20260906032056 72 205 0.0 0.0 0.00 0.00 0.00 92 1016.3
20260906031530 72 205 0.0 0.0 0.00 0.00 0.00 92 1016.2
20260906031004 72 205 0.0 0.0 0.00 0.00 0.00 91 1016.3
20260906030524 72 205 0.0 0.0 0.00 0.00 0.00 91 1016.4
20260906030107 72 205 0.0 0.0 0.00 0.00 0.00 91 1016.5
20260906025542 72 205 0.0 0.0 0.00 0.00 0.00 91 1016.4
20260906025103 72 205 0.0 0.0 0.00 0.00 0.00 92 1016.5
20260906024511 72 205 0.0 0.0 0.00 0.00 0.00 90 1016.6
20260906024034 73 205 0.0 0.0 0.00 0.00 0.00 90 1016.6
20260906023556 73 205 0.0 0.0 0.00 0.00 0.00 90 1016.5
20260906023021 73 205 0.0 0.0 0.00 0.00 0.00 89 1016.5
20260906022604 73 205 0.0 0.0 0.00 0.00 0.00 89 1016.3
20260906022017 73 205 0.0 0.0 0.00 0.00 0.00 89 1016.2
20260906021503 73 205 0.0 2.0 0.00 0.00 0.00 88 1016.1
20260906021029 73 205 0.0 2.0 0.00 0.00 0.00 88 1015.9
20260906020502 73 205 0.0 0.0 0.00 0.00 0.00 87 1015.7
20260906020037 74 205 0.0 0.0 0.00 0.00 0.00 87 1015.6
20260906015503 74 205 0.0 0.0 0.00 0.00 0.00 86 1015.4
20260906015040 74 205 0.0 0.0 0.00 0.00 0.00 86 1015.4
20260906014600 74 205 0.0 0.0 0.00 0.00 0.00 85 1015.2
20260906014010 75 205 0.0 0.0 0.00 0.00 0.00 84 1015.1
20260906013530 75 205 0.0 1.0 0.00 0.00 0.00 84 1014.9
20260906013102 75 205 0.0 3.0 0.00 0.00 0.00 84 1014.8
20260906012544 75 205 0.0 3.0 0.00 0.00 0.00 84 1014.6
20260906012104 76 183 1.0 3.0 0.00 0.00 0.00 83 1014.6
20260906011516 76 186 1.0 3.0 0.00 0.00 0.00 83 1014.4
20260906011034 76 196 1.0 2.0 0.00 0.00 0.00 82 1014.4
20260906010508 76 196 0.0 3.0 0.00 0.00 0.00 82 1014.4
20260906010033 77 196 1.0 3.0 0.00 0.00 0.00 82 1014.4
20260906005505 77 194 0.0 3.0 0.00 0.00 0.00 81 1014.4
20260906005044 77 186 1.0 4.0 0.00 0.00 0.00 81 1014.3
20260906004607 77 194 1.0 4.0 0.00 0.00 0.00 81 1014.3
20260906004023 77 204 1.0 5.0 0.00 0.00 0.00 80 1014.2
20260906003600 78 148 2.0 5.0 0.00 0.00 0.00 80 1014.2
20260906003008 78 162 2.0 5.0 0.00 0.00 0.00 79 1014.2
20260906002527 78 173 1.0 7.0 0.00 0.00 0.00 79 1014.2
20260906002002 78 142 2.0 5.0 0.00 0.00 0.00 78 1014.2
20260906001546 79 195 2.0 5.0 0.00 0.00 0.00 77 1014.0
20260906001106 79 174 2.0 7.0 0.00 0.00 0.00 77 1013.9
20260906000516 79 248 2.0 7.0 0.00 0.00 0.00 76 1013.9
20260906000051 79 247 1.0 6.0 0.00 0.00 0.00 76 1013.9
20260905235509 80 163 2.0 6.0 0.00 0.00 0.00 75 1013.7
20260905235030 80 157 1.0 5.0 0.00 0.00 0.00 75 1013.7
20260905234507 81 175 2.0 9.0 0.00 0.00 0.00 74 1013.8
20260905234002 81 199 2.0 9.0 0.00 0.00 0.00 74 1013.8
20260905233524 81 217 2.0 6.0 0.00 0.00 0.00 73 1013.9
20260905233051 81 177 2.0 6.0 0.00 0.00 0.00 73 1013.9
20260905232516 81 163 3.0 8.0 0.00 0.00 0.00 73 1013.7
20260905232036 82 147 2.0 8.0 0.00 0.00 0.00 73 1013.6
20260905231556 82 150 1.0 7.0 0.00 0.00 0.00 73 1013.6
20260905231030 82 165 2.0 10.0 0.00 0.00 0.00 73 1013.5
20260905230550 82 172 4.0 10.0 0.00 0.00 0.00 71 1013.4
20260905230020 82 192 3.0 8.0 0.00 0.00 0.00 71 1013.5
20260905225602 82 164 2.0 8.0 0.00 0.00 0.00 71 1013.4
20260905225026 82 110 2.0 7.0 0.00 0.00 0.00 71 1013.3
20260905224616 83 173 2.0 6.0 0.00 0.00 0.00 71 1013.1
20260905224025 83 150 3.0 9.0 0.00 0.00 0.00 71 1013.1
20260905223602 83 151 4.0 9.0 0.00 0.00 0.00 71 1013.1
20260905223046 82 161 2.0 7.0 0.00 0.00 0.00 71 1012.9
20260905222602 82 167 2.0 8.0 0.00 0.00 0.00 72 1012.9
20260905222012 82 152 3.0 9.0 0.00 0.00 0.00 71 1013.0
20260905221531 82 142 3.0 9.0 0.00 0.00 0.00 72 1013.0
20260905221054 82 171 4.0 8.0 0.00 0.00 0.00 72 1013.1
20260905220525 81 155 3.0 8.0 0.00 0.00 0.00 73 1013.2
20260905215520 81 148 3.0 7.0 0.00 0.00 0.00 72 1013.4
20260905215058 81 173 2.0 5.0 0.00 0.00 0.00 73 1013.4
20260905214501 81 180 2.0 5.0 0.00 0.00 0.00 72 1013.5
20260905214042 81 65 2.0 5.0 0.00 0.00 0.00 72 1013.6
20260905213602 81 137 1.0 6.0 0.00 0.00 0.00 73 1013.6
20260905213036 82 174 1.0 6.0 0.00 0.00 0.00 73 1013.6
20260905212555 82 183 2.0 6.0 0.00 0.00 0.00 72 1013.5
20260905212003 82 180 1.0 5.0 0.00 0.00 0.00 73 1013.5
20260905211546 83 203 1.0 9.0 0.00 0.00 0.00 72 1013.5
20260905211013 83 80 3.0 9.0 0.00 0.00 0.00 70 1013.5
20260905210607 84 158 2.0 8.0 0.00 0.00 0.00 71 1013.5
20260905210036 84 142 3.0 11.0 0.00 0.00 0.00 72 1013.4
20260905205601 84 115 3.0 11.0 0.00 0.00 0.00 70 1013.4
20260905205012 84 148 4.0 12.0 0.00 0.00 0.00 72 1013.4
20260905204532 83 82 2.0 12.0 0.00 0.00 0.00 74 1013.4
20260905204004 83 202 5.0 11.0 0.00 0.00 0.00 72 1013.6
20260905203552 84 163 3.0 10.0 0.00 0.00 0.00 72 1013.7
20260905203022 84 123 2.0 10.0 0.00 0.00 0.00 74 1013.9
20260905202606 84 141 2.0 9.0 0.00 0.00 0.00 75 1013.9
20260905202041 84 217 1.0 6.0 0.00 0.00 0.00 76 1014.0
20260905201510 84 161 3.0 6.0 0.00 0.00 0.00 75 1014.2
20260905201055 83 178 2.0 6.0 0.00 0.00 0.00 75 1014.2
20260905200512 83 167 2.0 9.0 0.00 0.00 0.00 76 1014.5
20260905200029 82 153 3.0 9.0 0.00 0.00 0.00 73 1014.7
20260905195509 82 144 3.0 9.0 0.00 0.00 0.00 75 1014.8
20260905195030 82 227 2.0 9.0 0.00 0.00 0.00 75 1014.8
20260905194554 82 200 3.0 8.0 0.00 0.00 0.00 76 1014.8
20260905194037 82 140 2.0 6.0 0.00 0.00 0.00 77 1014.8
20260905193557 81 151 2.0 7.0 0.00 0.00 0.00 78 1014.9